DW3560 Weather Reports


time (UTC)temp
F
wind
direction
speed
knots
gust
knots
rain 1hr
in
rain 24hr
in
rain mn
in
humidity
%
barometer
mb
20260502224502 60 296 0.9 3.5 0.00 0.00 0.00 76 1013.2
20260502224002 60 241 0.9 5.2 0.00 0.00 0.00 77 1013.2
20260502223523 59 270 0.9 5.2 0.00 0.00 0.00 77 1013.2
20260502223002 59 326 0.9 4.3 0.00 0.00 0.00 78 1013.2
20260502222523 59 246 0.9 3.5 0.00 0.00 0.00 78 1013.2
20260502222002 59 253 0.9 7.8 0.00 0.00 0.00 79 1013.2
20260502221502 58 279 0.9 7.8 0.00 0.00 0.00 79 1013.2
20260502221002 58 234 0.9 7.8 0.00 0.00 0.00 79 1013.2
20260502220502 58 234 0.9 7.8 0.00 0.00 0.00 78 1013.2
20260502220002 58 266 0.9 4.3 0.00 0.00 0.00 80 1013.2
20260502215502 58 226 0.9 4.3 0.00 0.00 0.00 80 1013.2
20260502214502 58 234 0.9 5.2 0.00 0.00 0.00 81 1013.2
20260502214002 57 245 0.9 5.2 0.00 0.00 0.00 81 1013.2
20260502213502 57 258 0.9 5.2 0.00 0.00 0.00 82 1013.2
20260502213002 57 228 0.9 5.2 0.00 0.00 0.00 81 1013.2
20260502212502 57 210 0.9 3.5 0.00 0.00 0.00 82 1013.2
20260502212002 57 238 0.9 3.5 0.00 0.00 0.00 81 1013.2
20260502211502 58 270 0.9 3.5 0.00 0.00 0.00 82 1013.2
20260502183002 54 239 0.9 4.3 0.00 0.00 0.00 92 1012.3
20260502182523 54 245 0.9 5.2 0.00 0.00 0.00 92 1012.3
20260502182002 54 248 0.9 6.1 0.00 0.00 0.00 92 1012.3
20260502181502 54 237 0.9 5.2 0.00 0.00 0.00 92 1012.3
20260502181002 54 234 0.9 3.5 0.00 0.00 0.00 92 1012.3
20260502180502 54 231 1.7 7.0 0.00 0.00 0.00 92 1012.3
20260502170502 52 233 0.9 3.5 0.00 0.00 0.00 93 1012.3
20260502164002 52 241 0.9 5.2 0.00 0.00 0.00 93 1012.3
20260502163502 52 237 0.9 4.3 0.00 0.00 0.00 93 1012.3
20260502163002 52 236 0.9 4.3 0.00 0.00 0.00 94 1012.3
20260502162523 52 235 0.9 3.5 0.00 0.00 0.00 93 1012.3
20260502162023 52 231 0.9 3.5 0.00 0.00 0.00 93 1012.3
20260502161502 52 229 0.9 4.3 0.00 0.00 0.00 94 1012.3
20260502161024 52 233 0.9 4.3 0.00 0.00 0.00 94 1012.3
20260502160503 52 239 0.9 6.1 0.00 0.00 0.00 94 1012.3
20260502152002 52 230 0.9 4.3 0.00 0.00 0.00 94 1012.3
20260502151502 52 236 0.9 4.3 0.00 0.00 0.00 94 1012.3
20260502151023 52 233 0.9 4.3 0.00 0.00 0.00 94 1012.3
20260502150524 51 233 0.9 3.5 0.00 0.00 0.00 94 1012.3
20260502130502 51 242 0.9 4.3 0.00 0.00 0.00 93 1012.3
20260502123503 51 233 0.9 4.3 0.00 0.00 0.00 93 1012.3
20260502123002 51 235 0.9 2.6 0.00 0.00 0.00 93 1012.3
20260502122502 51 237 0.0 2.6 0.00 0.00 0.00 93 1012.3
20260502122003 51 237 0.0 2.6 0.00 0.00 0.00 93 1012.3
20260502121502 51 242 0.9 3.5 0.00 0.00 0.00 93 1012.3
20260502121002 51 243 0.9 3.5 0.00 0.00 0.00 93 1012.3
20260502120502 51 245 0.0 3.5 0.00 0.00 0.00 93 1012.3
20260502115502 51 247 0.0 1.7 0.00 0.00 0.00 93 1012.3
20260502115002 51 245 0.0 2.6 0.00 0.00 0.00 93 1012.3
20260502114502 51 242 0.0 2.6 0.00 0.00 0.00 93 1012.3
20260502114023 51 234 0.0 1.7 0.00 0.00 0.00 93 1012.3
20260502113502 51 232 0.0 1.7 0.00 0.00 0.00 93 1012.3
20260502113002 52 232 0.0 2.6 0.00 0.00 0.00 93 1012.3
20260502112502 51 232 0.0 2.6 0.00 0.00 0.00 93 1012.3
20260502112023 51 232 0.0 0.9 0.00 0.00 0.00 93 1012.3
20260502111502 51 234 0.0 2.6 0.00 0.00 0.00 93 1012.3
20260502111023 51 236 0.0 2.6 0.00 0.00 0.00 93 1012.3
20260502110503 51 242 0.0 2.6 0.00 0.00 0.00 93 1012.3
20260502110002 51 238 0.0 0.9 0.00 0.00 0.00 93 1013.6
20260502105502 51 238 0.0 2.6 0.00 0.00 0.00 93 1013.6
20260502105002 51 238 0.0 2.6 0.00 0.00 0.00 93 1013.6
20260502104502 51 238 0.0 2.6 0.00 0.00 0.00 93 1013.6
20260502104023 51 241 0.0 2.6 0.00 0.00 0.00 93 1013.6
20260502103503 51 242 0.0 2.6 0.00 0.00 0.00 93 1013.6
20260502103002 51 241 0.0 2.6 0.00 0.00 0.00 93 1013.6
20260502102502 52 235 0.0 1.7 0.00 0.00 0.00 93 1013.6
20260502102002 52 235 0.0 1.7 0.00 0.00 0.00 92 1013.6
20260502101502 52 233 0.0 2.6 0.00 0.00 0.00 93 1013.6
20260502101023 52 233 0.0 2.6 0.00 0.00 0.00 93 1013.6
20260502100502 52 233 0.0 1.7 0.00 0.00 0.00 92 1013.6
20260502091502 52 236 0.0 2.6 0.00 0.00 0.00 92 1013.6
20260502091002 52 234 0.0 3.5 0.00 0.00 0.00 92 1013.6
20260502090503 52 231 0.0 4.3 0.00 0.00 0.00 92 1013.6
20260502071503 52 223 0.9 5.2 0.00 0.00 0.00 91 1013.6
20260502071002 52 226 0.0 1.7 0.00 0.00 0.00 91 1013.6
20260502070502 52 240 0.9 3.5 0.00 0.00 0.00 91 1013.6
20260502070026 52 243 0.0 3.5 0.00 0.00 0.00 91 1013.6
20260502065524 52 234 0.0 3.5 0.00 0.00 0.00 91 1013.6
20260502065002 52 228 0.0 3.5 0.00 0.00 0.00 91 1013.6
20260502064502 52 227 0.0 3.5 0.00 0.00 0.00 91 1013.6
20260502064003 52 230 0.0 3.5 0.00 0.00 0.00 91 1013.6
20260502063502 52 235 0.9 3.5 0.00 0.00 0.00 91 1013.6
20260502063024 52 233 0.9 6.1 0.00 0.00 0.00 90 1013.6
20260502062503 52 239 0.9 6.1 0.00 0.00 0.00 90 1013.6
20260502062003 52 236 0.9 6.1 0.00 0.00 0.00 90 1013.6
20260502061503 52 219 0.0 4.3 0.00 0.00 0.00 90 1013.6
20260502061003 52 225 0.0 4.3 0.00 0.00 0.00 90 1013.6
20260502060502 53 227 0.0 4.3 0.00 0.00 0.00 90 1013.6
20260502060003 53 229 0.0 2.6 0.00 0.00 0.00 90 1013.6
20260502055503 53 230 0.9 4.3 0.00 0.00 0.00 90 1013.6
20260502055002 53 232 0.0 4.3 0.00 0.00 0.00 90 1013.6
20260502054502 53 244 0.0 2.6 0.00 0.00 0.00 90 1013.6
20260502054003 53 245 0.0 2.6 0.00 0.00 0.00 90 1013.6
20260502053502 53 242 0.0 1.7 0.00 0.00 0.00 90 1013.6
20260502053024 53 239 0.0 1.7 0.00 0.00 0.00 90 1013.6
20260502052503 53 236 0.0 0.9 0.00 0.00 0.00 89 1013.6
20260502052003 53 233 0.0 1.7 0.00 0.00 0.00 89 1013.6
20260502051503 53 234 0.0 1.7 0.00 0.00 0.00 89 1013.6
20260502051024 53 229 0.0 2.6 0.00 0.00 0.00 89 1013.6
20260502050524 53 228 0.0 2.6 0.00 0.00 0.00 89 1013.6
20260502050003 53 221 0.0 0.9 0.00 0.00 0.00 89 1013.6
20260502044503 53 294 0.0 2.6 0.00 0.00 0.00 89 1013.6
20260502044024 53 277 0.0 2.6 0.00 0.00 0.00 89 1013.6
20260502043503 53 237 0.0 1.7 0.00 0.00 0.00 88 1012.9
20260502043002 53 235 0.0 1.7 0.00 0.00 0.00 88 1012.9
20260502042503 54 233 0.0 2.6 0.00 0.00 0.00 88 1012.9
20260502042002 54 256 0.0 2.6 0.00 0.00 0.00 88 1012.9
20260502041503 54 303 0.0 0.9 0.00 0.00 0.00 88 1012.9
20260502041003 53 350 0.0 0.9 0.00 0.00 0.00 87 1012.9
20260502040502 53 350 0.0 0.9 0.00 0.00 0.00 87 1012.9
20260502040003 54 352 0.0 0.9 0.00 0.00 0.00 87 1012.9
20260502035503 54 354 0.0 2.6 0.00 0.00 0.00 87 1012.9
20260502035003 54 354 0.0 2.6 0.00 0.00 0.00 86 1012.9
20260502034503 54 355 0.0 1.7 0.00 0.00 0.00 86 1012.6
20260502034003 54 355 0.0 1.7 0.00 0.00 0.00 86 1012.6
20260502033503 54 354 0.0 0.9 0.00 0.00 0.00 85 1012.6
20260502033002 54 0 0.0 0.0 0.00 0.00 0.00 85 1012.6
20260502032503 54 355 0.0 0.9 0.00 0.00 0.00 84 1012.6
20260502032024 54 355 0.0 0.9 0.00 0.00 0.00 84 1012.6
20260502031524 54 0 0.0 0.0 0.00 0.00 0.00 84 1012.6
20260502031024 54 353 0.0 0.9 0.00 0.00 0.00 84 1012.6
20260502030503 55 355 0.0 3.5 0.00 0.00 0.00 83 1012.6
20260502030003 55 355 0.0 3.5 0.00 0.00 0.00 83 1012.6
20260502025503 55 337 0.0 3.5 0.00 0.00 0.00 83 1012.6
20260502025002 55 337 0.0 3.5 0.00 0.00 0.00 82 1012.6
20260502024524 56 347 0.0 2.6 0.00 0.00 0.00 82 1012.6
20260502024003 56 345 0.0 2.6 0.00 0.00 0.00 81 1012.4
20260502023503 56 341 0.9 3.5 0.00 0.00 0.00 81 1012.4
20260502023024 57 340 0.9 5.2 0.00 0.00 0.00 80 1012.4
20260502022503 57 342 0.9 5.2 0.00 0.00 0.00 80 1012.4
20260502022003 58 349 0.0 2.6 0.00 0.00 0.00 80 1012.4
20260502021524 58 346 0.0 2.6 0.00 0.00 0.00 79 1012.4
20260502021003 58 344 0.9 4.3 0.00 0.00 0.00 79 1012.4
20260502020503 59 351 0.9 5.2 0.00 0.00 0.00 78 1012.4
20260502020003 59 354 0.9 5.2 0.00 0.00 0.00 78 1012.4
20260502015503 59 348 0.0 3.5 0.00 0.00 0.00 78 1012.4
20260502015024 60 349 0.0 3.5 0.00 0.00 0.00 77 1012.4
20260502014524 60 350 0.0 2.6 0.00 0.00 0.00 77 1012.4
20260502014003 60 346 0.0 4.3 0.00 0.00 0.00 76 1012.7
20260502013503 61 342 0.9 4.3 0.00 0.00 0.00 75 1012.7
20260502013003 61 339 0.9 4.3 0.00 0.00 0.00 74 1012.7
20260502012503 62 334 0.9 4.3 0.00 0.00 0.00 72 1012.7
20260502012003 62 336 0.9 4.3 0.00 0.00 0.00 71 1012.7
20260502011503 63 341 1.7 7.0 0.00 0.00 0.00 70 1012.7
20260502011003 64 340 1.7 7.0 0.00 0.00 0.00 69 1012.7
20260502010503 65 340 0.9 4.3 0.00 0.00 0.00 69 1012.7
20260502010003 65 335 0.9 5.2 0.00 0.00 0.00 68 1012.7
20260502005503 66 333 0.9 7.0 0.00 0.00 0.00 67 1012.7
20260502005002 66 337 0.9 7.0 0.00 0.00 0.00 67 1012.7
20260502004503 67 340 1.7 5.2 0.00 0.00 0.00 66 1012.9
20260502004003 67 347 1.7 5.2 0.00 0.00 0.00 65 1012.9
20260502003503 68 351 0.9 5.2 0.00 0.00 0.00 66 1012.9
20260502003003 68 344 0.9 4.3 0.00 0.00 0.00 66 1012.9
20260502002503 68 336 0.9 4.3 0.00 0.00 0.00 66 1012.9
20260502002024 68 335 0.9 2.6 0.00 0.00 0.00 66 1012.9
20260502001503 68 347 0.9 4.3 0.00 0.00 0.00 65 1012.9
20260502001003 68 350 1.7 4.3 0.00 0.00 0.00 65 1012.9
20260502000503 68 342 0.9 4.3 0.00 0.00 0.00 65 1012.9
20260502000024 69 339 1.7 5.2 0.00 0.00 0.00 64 1012.9
20260501235503 69 345 1.7 5.2 0.00 0.00 0.00 64 1012.9
20260501235003 70 344 1.7 4.3 0.00 0.00 0.00 64 1012.9
20260501234524 70 345 1.7 5.2 0.00 0.00 0.00 63 1012.9
20260501234024 70 346 1.7 7.0 0.00 0.00 0.00 63 1013.3
20260501233503 71 342 1.7 7.0 0.00 0.00 0.00 63 1013.3
20260501233003 71 346 1.7 6.1 0.00 0.00 0.00 64 1013.3
20260501232503 71 352 0.9 4.3 0.00 0.00 0.00 64 1013.3
20260501232003 71 346 0.9 5.2 0.00 0.00 0.00 63 1013.3
20260501231503 71 342 1.7 7.8 0.00 0.00 0.00 62 1013.3
20260501231003 71 342 1.7 7.8 0.00 0.00 0.00 62 1013.3
20260501230503 71 343 0.9 3.5 0.00 0.00 0.00 64 1013.3
20260501230003 71 346 1.7 5.2 0.00 0.00 0.00 62 1013.3
20260501225503 72 334 0.9 5.2 0.00 0.00 0.00 64 1013.3
20260501225003 71 293 0.9 5.2 0.00 0.00 0.00 64 1013.3